Huntsville Madison, AL

2:11 PM CDT on June 28, 2017 (GMT -0500)
Huntsville Madison

Weather History for KMDQ - September, 2012

Change the Weather History Date:

Friday, September 28, 2012

  Actual Average (KHSV) Record (KHSV)
Temperature  
Mean Temperature 72 °F -  
Max Temperature 84 °F 77 °F 97 °F (1954)
Min Temperature 60 °F 56 °F 38 °F (1942)
Cooling Degree Days 7    
Growing Degree Days 22 (Base 50)    
Moisture  
Dew Point 64 °F    
Average Humidity 84    
Maximum Humidity 100    
Minimum Humidity 51    
Precipitation  
Precipitation 0.00 in - - ()
Sea Level Pressure  
Sea Level Pressure 30.08 in    
Wind  
Wind Speed 1 mph (WNW)    
Max Wind Speed 14 mph    
Max Gust Speed 18 mph    
Visibility 9 miles    
Events Rain , Thunderstorm    
Averages and records for this station are not official NWS values.
T = Trace of Precipitation, MM = Missing Value Source: NWS Daily Summary

Daily Weather History Graph

Daily Weather History Graph

Search for Another Location

Airport or City:

Trip Planner

Search our weather history database for the weather conditions in past years. The results will help you decide how hot, cold, wet, or windy it might be!

Date:

Astronomy

Sep. 28, 2012 Rise Set
Actual Time 6:39 AM CDT 6:33 PM CDT
Civil Twilight 6:13 AM CDT 6:58 PM CDT
Nautical Twilight 5:44 AM CDT 7:28 PM CDT
Astronomical Twilight 5:14 AM CDT 7:57 PM CDT
Moon 5:35 PM CDT 5:11 AM CDT
Length of Visible Light 12h 45m
Length of Day
11h 54m
Waxing Gibbous, 98% of the Moon is Illuminated
Sep 28
Waxing Gibbous
Sep 29
Full
Oct 8
Last Quarter
Oct 15
New
Oct 21
First Quarter

Hourly Weather History & Observations

Time (CDT) Temp. Heat Index Dew Point Humidity Pressure Visibility Wind Dir Wind Speed Gust Speed Precip Events Conditions
12:15 AM 62.6 °F - 62.6 °F 100% 30.13 in 7.0 mi Calm Calm - N/A   Scattered Clouds
12:35 AM 62.6 °F - 62.6 °F 100% 30.12 in 7.0 mi Calm Calm - N/A   Overcast
12:55 AM 64.4 °F - 64.4 °F 100% 30.12 in 10.0 mi Calm Calm - N/A   Scattered Clouds
1:15 AM 62.6 °F - 62.6 °F 100% 30.12 in 7.0 mi Calm Calm - N/A   Clear
1:35 AM 62.6 °F - 62.6 °F 100% 30.12 in 5.0 mi Calm Calm - N/A   Clear
1:55 AM 62.6 °F - 62.6 °F 100% 30.12 in 7.0 mi Calm Calm - N/A   Clear
2:15 AM 62.6 °F - 62.6 °F 100% 30.11 in 4.0 mi Calm Calm - N/A   Clear
2:35 AM 62.6 °F - 62.6 °F 100% 30.11 in 7.0 mi Calm Calm - N/A   Clear
2:55 AM 62.6 °F - 62.6 °F 100% 30.10 in 10.0 mi Calm Calm - N/A   Clear
3:15 AM 60.8 °F - 60.8 °F 100% 30.10 in 7.0 mi Calm Calm - N/A   Clear
3:35 AM 60.8 °F - 60.8 °F 100% 30.10 in 7.0 mi Calm Calm - N/A   Clear
3:55 AM 62.6 °F - 62.6 °F 100% 30.10 in 7.0 mi Calm Calm - N/A   Clear
4:15 AM 60.8 °F - 60.8 °F 100% 30.09 in 10.0 mi Calm Calm - N/A   Clear
4:35 AM 60.8 °F - 60.8 °F 100% 30.10 in 10.0 mi Calm Calm - N/A   Clear
4:55 AM 60.8 °F - 60.8 °F 100% 30.10 in 7.0 mi Calm Calm - N/A   Clear
5:15 AM 60.8 °F - 60.8 °F 100% 30.10 in 7.0 mi Calm Calm - N/A   Clear
5:35 AM 60.8 °F - 60.8 °F 100% 30.10 in 5.0 mi Calm Calm - N/A   Clear
5:55 AM 60.8 °F - 60.8 °F 100% 30.10 in 5.0 mi Calm Calm - N/A   Clear
6:15 AM 60.8 °F - 60.8 °F 100% 30.11 in 2.5 mi Calm Calm - N/A   Clear
6:35 AM 60.8 °F - 60.8 °F 100% 30.12 in 4.0 mi Calm Calm - N/A   Clear
6:55 AM 60.8 °F - 60.8 °F 100% 30.12 in 5.0 mi Calm Calm - N/A   Clear
7:15 AM 60.8 °F - 60.8 °F 100% 30.12 in 5.0 mi Calm Calm - N/A   Clear
7:35 AM 60.8 °F - 60.8 °F 100% 30.12 in 10.0 mi Calm Calm - N/A   Clear
7:55 AM 62.6 °F - 62.6 °F 100% 30.13 in 10.0 mi Calm Calm - N/A   Clear
8:15 AM 64.4 °F - 64.4 °F 100% 30.13 in 10.0 mi Calm Calm - N/A   Clear
8:35 AM 66.2 °F - 66.2 °F 100% 30.13 in 10.0 mi Calm Calm - N/A   Clear
8:55 AM 68.0 °F - 66.2 °F 94% 30.13 in 10.0 mi Calm Calm - N/A   Clear
9:15 AM 69.8 °F - 68.0 °F 94% 30.13 in 10.0 mi Calm Calm - N/A   Clear
9:35 AM 71.6 °F - 68.0 °F 88% 30.13 in 10.0 mi Calm Calm - N/A   Clear
9:55 AM 73.4 °F - 68.0 °F 83% 30.13 in 10.0 mi South 3.5 mph - N/A   Clear
10:15 AM 77.0 °F - 68.0 °F 74% 30.13 in 10.0 mi Calm Calm - N/A   Clear
10:35 AM 78.8 °F - 68.0 °F 69% 30.13 in 10.0 mi Calm Calm - N/A   Clear
10:55 AM 80.6 °F 83.2 °F 68.0 °F 65% 30.13 in 10.0 mi West 8.1 mph - N/A   Scattered Clouds
11:15 AM 78.8 °F - 68.0 °F 69% 30.13 in 10.0 mi WSW 6.9 mph - N/A   Mostly Cloudy
11:35 AM 80.6 °F 82.7 °F 66.2 °F 61% 30.12 in 10.0 mi West 5.8 mph - N/A   Scattered Clouds
11:55 AM 80.6 °F 82.7 °F 66.2 °F 61% 30.12 in 10.0 mi West 8.1 mph - N/A   Clear
12:15 PM 82.4 °F 84.6 °F 66.2 °F 58% 30.11 in 10.0 mi WNW 8.1 mph - N/A   Scattered Clouds
12:35 PM 80.6 °F 82.3 °F 64.4 °F 58% 30.10 in 10.0 mi West 6.9 mph - N/A   Scattered Clouds
12:55 PM 82.4 °F 83.9 °F 64.4 °F 54% 30.09 in 10.0 mi Calm Calm - N/A   Scattered Clouds
1:15 PM 82.4 °F 83.9 °F 64.4 °F 54% 30.08 in 10.0 mi WSW 3.5 mph - N/A   Mostly Cloudy
1:35 PM 84.2 °F 85.6 °F 64.4 °F 51% 30.07 in 10.0 mi West 5.8 mph - N/A   Scattered Clouds
2:15 PM 80.6 °F 83.2 °F 68.0 °F 65% 30.06 in 10.0 mi NW 8.1 mph - N/A   Scattered Clouds
2:35 PM 80.6 °F 82.3 °F 64.4 °F 58% 30.05 in 10.0 mi NNW 4.6 mph - N/A   Mostly Cloudy
2:55 PM 80.6 °F 81.8 °F 62.6 °F 54% 30.05 in 10.0 mi North 5.8 mph - N/A   Mostly Cloudy
3:15 PM 80.6 °F 81.8 °F 62.6 °F 54% 30.04 in 10.0 mi NNW 6.9 mph - N/A   Scattered Clouds
3:35 PM 82.4 °F 83.9 °F 64.4 °F 54% 30.03 in 10.0 mi North 5.8 mph - N/A   Scattered Clouds
3:55 PM 80.6 °F 82.3 °F 64.4 °F 58% 30.02 in 10.0 mi NW 5.8 mph - N/A   Clear
4:15 PM 77.0 °F - 64.4 °F 65% 30.04 in 10.0 mi WSW 13.8 mph 18.4 mph N/A Thunderstorm Scattered Clouds
4:35 PM 73.4 °F - 62.6 °F 69% 30.03 in 10.0 mi SSW 6.9 mph - N/A Thunderstorm Thunderstorm
4:55 PM 73.4 °F - 62.6 °F 69% 30.03 in 10.0 mi Calm Calm - N/A   Scattered Clouds
5:15 PM 73.4 °F - 62.6 °F 69% 30.03 in 10.0 mi SSW 3.5 mph - N/A   Mostly Cloudy
5:35 PM 71.6 °F - 64.4 °F 78% 30.03 in 10.0 mi Calm Calm - N/A   Overcast
5:55 PM 73.4 °F - 64.4 °F 73% 30.03 in 7.0 mi Calm Calm - N/A   Scattered Clouds
6:15 PM 69.8 °F - 64.4 °F 83% 30.04 in 10.0 mi North 9.2 mph - N/A   Mostly Cloudy
6:35 PM 71.6 °F - 64.4 °F 78% 30.03 in 10.0 mi North 3.5 mph - N/A   Scattered Clouds
6:55 PM 71.6 °F - 62.6 °F 73% 30.03 in 10.0 mi Calm Calm - N/A Rain Light Rain
7:15 PM 69.8 °F - 64.4 °F 83% 30.02 in 10.0 mi Calm Calm - N/A   Clear
7:35 PM 69.8 °F - 64.4 °F 83% 30.03 in 10.0 mi Calm Calm - N/A   Clear
7:55 PM 68.0 °F - 64.4 °F 88% 30.04 in 10.0 mi Calm Calm - N/A   Clear
8:15 PM 68.0 °F - 64.4 °F 88% 30.04 in 10.0 mi NE 3.5 mph - N/A   Clear
8:35 PM 68.0 °F - 64.4 °F 88% 30.04 in 10.0 mi Calm Calm - N/A   Clear
8:55 PM 66.2 °F - 64.4 °F 94% 30.05 in 10.0 mi Calm Calm - N/A   Clear
9:15 PM 68.0 °F - 64.4 °F 88% 30.05 in 10.0 mi Calm Calm - N/A   Clear
9:35 PM 66.2 °F - 64.4 °F 94% 30.05 in 10.0 mi Calm Calm - N/A   Clear
9:55 PM 66.2 °F - 64.4 °F 94% 30.05 in 10.0 mi Calm Calm - N/A   Clear
10:15 PM 66.2 °F - 64.4 °F 94% 30.05 in 10.0 mi Calm Calm - N/A   Clear
10:35 PM 66.2 °F - 64.4 °F 94% 30.06 in 10.0 mi Calm Calm - N/A   Clear
10:55 PM 66.2 °F - 64.4 °F 94% 30.05 in 10.0 mi Calm Calm - N/A   Mostly Cloudy
11:15 PM 66.2 °F - 64.4 °F 94% 30.06 in 10.0 mi Calm Calm - N/A   Scattered Clouds
11:35 PM 66.2 °F - 64.4 °F 94% 30.06 in 10.0 mi Calm Calm - N/A   Scattered Clouds
11:55 PM 66.2 °F - 64.4 °F 94% 30.05 in 10.0 mi Calm Calm - N/A   Scattered Clouds